This is the latest recevied weather packets stored in our database for station/object N4ASP-13. If no packets are shown the sender has not sent any weather packets the latest 10 day(s).
| Time | Temp. | Humidity | Pressure | Rain* | Wind** | Luminosity | Snow |
|---|---|---|---|---|---|---|---|
| 1778275071 | 18.33° C | 44% | 1014 hPa | 0 mm | - | 557 W/m² | - |
| 1778275009 | 18.33° C | 46% | 1013.9 hPa | 0 mm | - | 543 W/m² | - |
| 1778274946 | 18.33° C | 45% | 1014 hPa | 0 mm | - | 473 W/m² | - |
| 1778274887 | 18.33° C | 45% | 1014 hPa | 0 mm | - | 497 W/m² | - |
| 1778274825 | 18.33° C | 46% | 1014 hPa | 0 mm | - | 517 W/m² | - |
| 1778274764 | 18.33° C | 45% | 1014 hPa | 0 mm | - | 506 W/m² | - |
| 1778274703 | 18.33° C | 46% | 1014 hPa | 0 mm | - | 483 W/m² | - |
| 1778274641 | 18.33° C | 47% | 1014.1 hPa | 0 mm | - | 406 W/m² | - |
| 1778274575 | 18.33° C | 45% | 1014 hPa | 0 mm | - | 396 W/m² | - |
| 1778274514 | 18.33° C | 45% | 1014 hPa | 0 mm | - | 420 W/m² | - |
| 1778274455 | 18.33° C | 45% | 1014.1 hPa | 0 mm | - | 427 W/m² | - |
| 1778274392 | 18.33° C | 45% | 1014 hPa | 0 mm | - | 475 W/m² | - |
| 1778274330 | 18.33° C | 45% | 1014 hPa | 0 mm | - | 445 W/m² | - |
| 1778274269 | 18.33° C | 47% | 1014 hPa | 0 mm | - | 415 W/m² | - |
| 1778274208 | 18.33° C | 44% | 1014 hPa | 0 mm | - | 415 W/m² | - |
| 1778274148 | 18.33° C | 46% | 1014.1 hPa | 0 mm | - | 415 W/m² | - |
| 1778274087 | 18.33° C | 45% | 1014.1 hPa | 0 mm | - | 454 W/m² | - |
| 1778274025 | 18.33° C | 44% | 1014 hPa | 0 mm | - | 454 W/m² | - |
| 1778273960 | 18.33° C | 45% | 1014 hPa | 0 mm | - | 413 W/m² | - |
| 1778273899 | 18.33° C | 44% | 1014.1 hPa | 0 mm | - | 413 W/m² | - |
| 1778273839 | 18.33° C | 44% | 1014 hPa | 0 mm | - | 413 W/m² | - |
| 1778273778 | 18.33° C | 43% | 1014 hPa | 0 mm | - | 306 W/m² | - |
| 1778273719 | 18.33° C | 43% | 1014.2 hPa | 0 mm | - | 329 W/m² | - |
| 1778273649 | 18.33° C | 44% | 1014.1 hPa | 0 mm | - | 508 W/m² | - |
| 1778273590 | 18.33° C | 44% | 1014.1 hPa | 0 mm | - | 508 W/m² | - |
* Rain latest hour (hover to see other rain measurements)
** Current wind speed in m/s (hover to see current wind gust speed)